This is the latest recevied weather packets stored in our database for station/object IK5UIK-3. If no packets are shown the sender has not sent any weather packets the latest 10 day(s).
| Time | Temp. | Humidity | Pressure | Rain* | Wind** | Luminosity | Snow |
|---|---|---|---|---|---|---|---|
| 1787486986 | 32.22° C | 33% | 1011.7 hPa | 0 mm | - | - | - |
| 1787486802 | 32.22° C | 33% | 1011.8 hPa | 0 mm | - | - | - |
| 1787486441 | 31.67° C | 35% | 1011.8 hPa | 0 mm | - | - | - |
| 1787486385 | 31.67° C | 35% | 1011.8 hPa | 0 mm | - | - | - |
| 1787486082 | 31.67° C | 34% | 1011.9 hPa | 0 mm | - | - | - |
| 1787485785 | 31.67° C | 35% | 1012 hPa | 0 mm | - | - | - |
| 1787485722 | 31.67° C | 35% | 1012 hPa | 0 mm | - | - | - |
| 1787485361 | 32.22° C | 36% | 1012.1 hPa | 0 mm | - | - | - |
| 1787485184 | 31.67° C | 37% | 1012.1 hPa | 0 mm | - | - | - |
| 1787485002 | 31.67° C | 37% | 1012.1 hPa | 0 mm | - | - | - |
| 1787484642 | 31.11° C | 37% | 1012.1 hPa | 0 mm | - | - | - |
| 1787484584 | 31.11° C | 37% | 1012.3 hPa | 0 mm | - | - | - |
| 1787484282 | 31.11° C | 37% | 1012.1 hPa | 0 mm | - | - | - |
| 1787483986 | 31.11° C | 38% | 1012.1 hPa | 0 mm | - | - | - |
| 1787483922 | 31.11° C | 38% | 1012.1 hPa | 0 mm | - | - | - |
| 1787483684 | 31.11° C | 38% | 1012.2 hPa | 0 mm | - | - | - |
| 1787483562 | 30.56° C | 38% | 1012.2 hPa | 0 mm | - | - | - |
| 1787483385 | 31.11° C | 38% | 1012.2 hPa | 0 mm | - | - | - |
| 1787483202 | 31.11° C | 38% | 1012.2 hPa | 0 mm | - | - | - |
| 1787483084 | 31.11° C | 38% | 1012.2 hPa | 0 mm | - | - | - |
| 1787482842 | 31.11° C | 38% | 1012.3 hPa | 0 mm | - | - | - |
| 1787482482 | 31.11° C | 38% | 1012.3 hPa | 0 mm | - | - | - |
| 1787482184 | 31.11° C | 38% | 1012.6 hPa | 0 mm | - | - | - |
| 1787482122 | 31.11° C | 41% | 1012.5 hPa | 0 mm | - | - | - |
| 1787481762 | 31.11° C | 40% | 1012.4 hPa | 0 mm | - | - | - |
* Rain latest hour (hover to see other rain measurements)
** Current wind speed in m/s (hover to see current wind gust speed)